Flag for Macedonia, Republic of Weather past 2 weeks in Skopje, Macedonia, Republic of

Now
81 °F

Passing clouds.


Feels Like: 81 °F
Forecast: 59 / 85 °F
Wind: 3 mph from North

Location: Skopje-Petrovec

Current Time: Jul 3, 2015 at 10:50:29 AM

Latest Report: Jul 3, 2015 at 10:30 AM


Visibility: N/A

Pressure: 30.21 "Hg

Humidity: 42%

Dew point: 55 °F

Location of SkopjeLocation

Historic Weather in Skopje — Graph

°F

Skopje temperature yesterday

Maximum temperature yesterday: 86 °F (at 2:00 PM)
Minimum temperature yesterday: 54 °F (at 4:00 AM)
Average temperature yesterday: 71 °F

Past Weeks' High & Low Weather Summary

 TemperatureHumidityPressure
High86 °F (Jul 2, 2:00 PM)94% (Jun 20, 5:00 AM)30.24 "Hg (Jun 20, 5:00 AM)
Low48 °F (Jun 23, 5:00 AM)25% (Jun 23, 4:30 PM)29.80 "Hg (Jun 19, 3:00 PM)
Average67 °F63%30.02 "Hg
* Reported Jun 18 10:00 AM — Jul 3 10:00 AM, Skopje, Weather by CustomWeather, © 2015

Note: Actual official high and low records may vary slightly from our data, if they occured in-between our weather recording intervals... More about our weather records

Advertising

Skopje weather history for previous 24 hours

 ConditionsComfort  
Time TempWeatherWind HumidityBarometerVisibility
10:00 AM
Fri, Jul 3
79 °FPassing clouds.2 mph48%30.21 "HgN/A
9:30 AM77 °FPassing clouds.3 mph51%30.21 "HgN/A
9:00 AM75 °FSunny.2 mph54%30.21 "Hg10 mi
8:30 AM73 °FSunny.2 mph57%30.24 "Hg10 mi
8:00 AM72 °FSunny.7 mph61%30.24 "Hg10 mi
7:30 AM70 °FSunny.No wind57%30.24 "Hg10 mi
7:00 AM66 °FSunny.No wind73%30.24 "Hg10 mi
6:30 AM64 °FSunny.No wind78%30.21 "Hg10 mi
6:00 AM61 °FClear.2 mph83%30.21 "Hg10 mi
5:30 AM61 °FClear.2 mph83%30.21 "Hg10 mi
4:30 AM59 °FClear.No wind82%30.21 "Hg10 mi
3:30 AM59 °FClear.2 mph82%30.21 "Hg10 mi
1:30 AM63 °FClear.2 mph73%30.21 "Hg10 mi
1:00 AM63 °FClear.2 mph73%30.21 "Hg10 mi
12:30 AM64 °FClear.No wind68%30.21 "Hg10 mi
12:00 AM64 °FClear.No wind68%30.21 "Hg10 mi
11:30 PM
Thu, Jul 2
70 °FClear.No wind53%30.21 "Hg10 mi
11:00 PM70 °FClear.No wind53%30.21 "Hg10 mi
10:30 PM72 °FClear.No wind53%30.21 "Hg10 mi
10:00 PM72 °FClear.2 mph53%30.21 "Hg10 mi
9:30 PM72 °FClear.2 mph53%30.18 "Hg10 mi
9:00 PM73 °FSunny.5 mph50%30.18 "Hg10 mi
8:30 PM75 °FSunny.5 mph44%30.18 "Hg10 mi
8:00 PM81 °FSunny.7 mph37%30.15 "Hg10 mi
7:30 PM82 °FSunny.12 mph32%30.15 "Hg10 mi
7:00 PM82 °FSunny.14 mph32%30.15 "Hg10 mi
6:30 PM84 °FPassing clouds.13 mph33%30.15 "HgN/A
6:00 PM84 °FPassing clouds.13 mph33%30.15 "HgN/A
5:30 PM84 °FPassing clouds.12 mph33%30.15 "HgN/A
5:00 PM86 °FPassing clouds.12 mph31%30.15 "HgN/A
4:30 PM86 °FPassing clouds.7 mph33%30.15 "HgN/A
4:00 PM86 °FPassing clouds.9 mph31%30.15 "HgN/A
3:30 PM86 °FPassing clouds.5 mph33%30.15 "HgN/A
3:00 PM86 °FPassing clouds.5 mph33%30.15 "HgN/A
2:30 PM84 °FPassing clouds.3 mph33%30.15 "HgN/A
2:00 PM86 °FPassing clouds.7 mph31%30.15 "HgN/A
1:30 PM82 °FPassing clouds.3 mph35%30.18 "HgN/A
1:00 PM82 °FScattered clouds.5 mph37%30.18 "HgN/A
12:30 PM81 °FScattered clouds.5 mph45%30.18 "HgN/A
12:00 PM79 °FScattered clouds.7 mph48%30.18 "HgN/A
11:30 AM79 °FPassing clouds.7 mph48%30.21 "HgN/A
11:00 AM77 °FPassing clouds.2 mph54%30.21 "HgN/A
10:30 AM75 °FPassing clouds.2 mph57%30.21 "HgN/A
10:00 AM72 °FSunny.2 mph61%30.21 "Hg10 mi
Weather by CustomWeather, © 2015

See weather overviewHow to use our weather pages